DELTA 1 DEB, 42082

Orbit data source: Space-Track

DELTA 1 DEB, 42082 is space debris in SSO originally from a launch on Sun, 15 Dec 1968 UTC launched from the Air Force Western Test Range (AFWTR). Debris objects in space refer to the collection of defunct objects orbiting the Earth. Examples of debris include non-operational satellites, rocket bodies, and fragments generated from explosions, collisions, or faulty payload assembly.

Loading next visibility...
Identifier
42082, 1968-114J
Orbit
SSO
Country
Flag of USUS
Related business
Manufacturer
Aerojet
Mission
Spacecraft
Bus & Motor
Unknown
Mass
Unknown
Launch date (UTC)
1968-12-15 (57 years ago)
Launch vehicle
Unknown
Launch site
Air Force Western Test Range (AFWTR)
Object type
Payload
Rocket body
Debris
Shape & HBR
Unknown shape, 0.2 m
Radar Cross Section
Small (<0.1 m²)

Expand to show TLE details & history
Last TLE update: 2 days ago

TLE from 2 days ago
0 DELTA 1 DEB
1 42082U 68114J   25301.09995133  .00000101  00000-0  10384-2 0  9996
2 42082 101.9437 247.6491 0088188  24.0409 353.9690 12.42776462541587
Epoch: 2025-10-28T02:23Z
TLE epoch observation values (Epoch: 2025-10-28T02:23:55.794Z)
Latitude
17.49498°
Longitude
171.17023°
Altitude
1,427.793 km
Speed
7.18 km/s
True Right ascension
16h 15m 22s
True Declination
17° 24' 18"
Sunlit
Object was in daylight at epoch
Visualization orbit readout
Latitude
Unknown
Longitude
Unknown
Altitude
Unknown
Speed
Unknown
Apparent Right ascension
Unknown
Apparent Declination
Unknown
Sunlit
N/A
Visualization observer readout
Local Sidereal Time
09:56:21
Azimuth
Unknown
Elevation
Unknown
Doppler factor
Unknown
Orbital elements
Apogee altitude
1,561.832 km
Perigee altitude
1,423.014 km
Semi-major axis
7,870.56 km
Eccentricity
0.00882
Inclination
101.9437°
RAAN
247.6491°
Arg. of periapsis
24.0409°
True anomaly
353.86165°
Mean anomaly
353.969°
Eccentric anomaly
353.91544°
Mean motion
3.10838 °/min
Orbital period
115.82 mins
BSTAR
0.0010384
Loading maneuver chart data...
Computing Atmospheric mass density...
Loading historical data...
Loading historical data...
Loading historical data...
Loading historical data...
Loading historical data...
Loading historical data...
Loading historical data...

Documentation

Showing up to 5 results
|